User: anonymous   Login
Location: Unspecified
(0.0000°N, 0.0000°E)
Time: 17:38:23
(UTC+00:00)
Language:

TISAT 1 - Orbit

View from above orbital plane
View from above orbital plane
View from above satellite
View from above satellite

Ground track
Ground track

The orbit data is extracted from the following two-line orbital elements,

1 36799U 10035E   21340.82438066  .00000868  00000-0  91616-4 0  9999
2 36799  98.1958 178.6046 0012362  14.3041 345.8525 14.92015452619039
Epoch (UTC): 06 December 2021 19:47:06
Eccentricity: 0.0012362
inclination: 98.1958°
perigee height: 583 km
apogee height: 600 km
right ascension of ascending node: 178.6046°
argument of perigee: 14.3041°
revolutions per day: 14.92015452
mean anomaly at epoch: 345.8525°
orbit number at epoch: 61903

The dashed part of the orbit path shows where the satellite is in the earth's shadow,  

DLR